Weather History for Mytilini, Greece

Change the Weather History Date:

Friday, August 23, 2013

  Actual Average Record
Temperature  
Mean Temperature 80 °F -  
Max Temperature 89 °F 81 °F 96 °F (2012)
Min Temperature 72 °F 66 °F 68 °F (1996)
Cooling Degree Days 16    
Growing Degree Days 30 (Base 50)    
Moisture  
Dew Point 63 °F    
Average Humidity 56    
Maximum Humidity 73    
Minimum Humidity 30    
Precipitation  
Precipitation 0.00 in 0.01 in - ()
Sea Level Pressure  
Sea Level Pressure 29.84 in    
Wind  
Wind Speed 4 mph ()    
Max Wind Speed 12 mph    
Max Gust Speed -    
Visibility 6.6 miles    
Events      
Averages and records for this station are not official NWS values.
T = Trace of Precipitation, MM = Missing Value Source: Averaged Metar Reports

Daily Weather History Graph

Daily Weather History Graph

Search for Another Location

Airport:

Trip Planner

Search our weather history database for the weather conditions in past years. The results will help you decide how hot, cold, wet, or windy it might be!

Date:

Astronomy

Aug. 23, 2013 Rise Set
Actual Time 6:34 AM EEST 7:57 PM EEST
Civil Twilight 6:06 AM EEST 8:25 PM EEST
Nautical Twilight 5:32 AM EEST 8:58 PM EEST
Astronomical Twilight 4:57 AM EEST 9:34 PM EEST
Moon 9:07 PM EEST (8/23) 9:06 AM EEST (8/23)
Length of Visible Light 14h 19m
Length of Day
13h 23m
Waning Gibbous, 93% of the Moon is Illuminated
Aug 23
Waning Gibbous
Aug 28
Last Quarter
Sep 5
New
Sep 12
First Quarter
Sep 19
Full

Hourly Weather History & Observations

Time (EEST) Temp. Heat Index Dew Point Humidity Pressure Visibility Wind Dir Wind Speed Gust Speed Precip Events Conditions
12:50 AM 77.0 °F - 62.6 °F 61% 29.83 in - Calm Calm - N/A   Clear
1:50 AM 77.0 °F - 62.6 °F 61% 29.83 in - Calm Calm - N/A   Clear
2:50 AM 75.2 °F - 62.6 °F 65% 29.83 in - Calm Calm - N/A   Clear
3:00 AM 76 °F - 63 °F 55% 29.84 in 6 mi Calm Calm - -  
3:50 AM 75.2 °F - 62.6 °F 65% 29.83 in - Calm Calm - N/A   Clear
4:20 AM 73.4 °F - 62.6 °F 69% 29.83 in - Calm Calm - N/A   Clear
4:50 AM 71.6 °F - 62.6 °F 73% 29.83 in - Calm Calm - N/A   Clear
5:20 AM 71.6 °F - 62.6 °F 73% 29.83 in - Calm Calm - N/A   Clear
5:50 AM 73.4 °F - 62.6 °F 69% 29.83 in 6.2 mi Calm Calm - N/A   Scattered Clouds
6:20 AM 73.4 °F - 62.6 °F 69% 29.83 in 6.2 mi Calm Calm - N/A   Partly Cloudy
6:50 AM 73.4 °F - 62.6 °F 69% 29.83 in 6.2 mi Calm Calm - N/A   Partly Cloudy
7:20 AM 73.4 °F - 62.6 °F 69% 29.83 in 6.2 mi Calm Calm - N/A   Partly Cloudy
7:50 AM 73.4 °F - 62.6 °F 69% 29.83 in 6.2 mi Calm Calm - N/A   Partly Cloudy
8:20 AM 77.0 °F - 66.2 °F 69% 29.83 in 6.2 mi WNW 5.8 mph - N/A   Scattered Clouds
8:50 AM 77.0 °F - 66.2 °F 69% 29.83 in 6.2 mi NW 6.9 mph - N/A   Scattered Clouds
9:00 AM 76 °F - 66 °F 64% 29.86 in 9 mi NW 6.9 mph - -   Partly Cloudy
9:20 AM 78.8 °F - 66.2 °F 65% 29.86 in 6.2 mi NW 8.1 mph - N/A   Scattered Clouds
9:50 AM 78.8 °F - 66.2 °F 65% 29.86 in 6.2 mi NW 6.9 mph - N/A   Scattered Clouds
10:20 AM 78.8 °F - 64.4 °F 61% 29.86 in 6.2 mi NW 8.1 mph - N/A   Scattered Clouds
10:50 AM 80.6 °F 82.3 °F 64.4 °F 58% 29.86 in 6.2 mi NW 9.2 mph - N/A   Scattered Clouds
11:20 AM 80.6 °F 81.8 °F 62.6 °F 54% 29.86 in 6.2 mi NW 8.1 mph - N/A   Scattered Clouds
11:50 AM 80.6 °F 81.8 °F 62.6 °F 54% 29.86 in 6.2 mi NW 9.2 mph - N/A   Mostly Cloudy
12:20 PM 82.4 °F 83.4 °F 62.6 °F 51% 29.86 in 6.2 mi NNW 10.4 mph - N/A   Mostly Cloudy
12:50 PM 84.2 °F 85.0 °F 62.6 °F 48% 29.86 in 6.2 mi NNW 10.4 mph - N/A   Mostly Cloudy
1:20 PM 84.2 °F 85.6 °F 64.4 °F 51% 29.86 in 6.2 mi NW 8.1 mph - N/A   Mostly Cloudy
1:50 PM 84.2 °F 85.0 °F 62.6 °F 48% 29.86 in 6.2 mi NW 11.5 mph - N/A   Mostly Cloudy
2:20 PM 84.2 °F 85.0 °F 62.6 °F 48% 29.83 in 6.2 mi NW 10.4 mph - N/A   Mostly Cloudy
2:50 PM 86.0 °F 86.1 °F 60.8 °F 43% 29.83 in - NW 9.2 mph - N/A   Clear
3:00 PM 87 °F - 60 °F 30% 29.85 in 9 mi NW 9.2 mph - -   Clear
3:20 PM 86.0 °F 86.1 °F 60.8 °F 43% 29.80 in - NW 10.4 mph - N/A   Clear
3:50 PM 87.8 °F 87.6 °F 60.8 °F 40% 29.80 in - NW 10.4 mph - N/A   Clear
4:20 PM 87.8 °F 87.6 °F 60.8 °F 40% 29.80 in - NW 10.4 mph - N/A   Clear
4:50 PM 87.8 °F 87.1 °F 59.0 °F 38% 29.80 in - NW 11.5 mph - N/A   Clear
5:20 PM 87.8 °F 87.1 °F 59.0 °F 38% 29.80 in - NW 9.2 mph - N/A   Clear
5:50 PM 87.8 °F 87.1 °F 59.0 °F 38% 29.80 in 6.2 mi NW 10.4 mph - N/A   Partly Cloudy
6:20 PM 87.8 °F 87.1 °F 59.0 °F 38% 29.80 in 6.2 mi NW 9.2 mph - N/A   Partly Cloudy
6:50 PM 84.2 °F 85.6 °F 64.4 °F 51% 29.80 in 6.2 mi NW 9.2 mph - N/A   Partly Cloudy
7:20 PM 84.2 °F 85.6 °F 64.4 °F 51% 29.83 in 6.2 mi NW 8.1 mph - N/A   Partly Cloudy
7:50 PM 82.4 °F 82.9 °F 60.8 °F 48% 29.83 in - WNW 4.6 mph - N/A   Clear
8:20 PM 80.6 °F 81.1 °F 59.0 °F 48% 29.83 in - WNW 4.6 mph - N/A   Clear
8:50 PM 80.6 °F 81.8 °F 62.6 °F 54% 29.83 in - North 5.8 mph - N/A   Clear
9:00 PM 80 °F - 63 °F 46% 29.86 in 12 mi North 5.8 mph - -  
9:20 PM 78.8 °F - 62.6 °F 57% 29.86 in - Calm Calm - N/A   Clear
9:50 PM 78.8 °F - 60.8 °F 54% 29.86 in - Calm Calm - N/A   Clear
10:20 PM 78.8 °F - 60.8 °F 54% 29.86 in - Calm Calm - N/A   Clear
10:50 PM 78.8 °F - 64.4 °F 61% 29.89 in - NW 5.8 mph - N/A   Clear
11:20 PM 78.8 °F - 64.4 °F 61% 29.89 in - NW 5.8 mph - N/A   Clear
11:50 PM 77.0 °F - 62.6 °F 61% 29.89 in - Calm Calm - N/A   Clear